Baker, MT

6:01 PM MDT on June 23, 2017 (GMT -0600)
Baker Municipal

Weather History for KBHK - July, 2013

Change the Weather History Date:

Saturday, July 13, 2013

  Actual Average Record
Temperature  
Mean Temperature 73 °F -  
Max Temperature 93 °F 97 °F 104 °F (2002)
Min Temperature 55 °F 60 °F 44 °F (2008)
Cooling Degree Days 8    
Growing Degree Days 23 (Base 50)    
Moisture  
Dew Point 55 °F    
Average Humidity 56    
Maximum Humidity 84    
Minimum Humidity 32    
Precipitation  
Precipitation 0.00 in - - ()
Sea Level Pressure  
Sea Level Pressure 29.95 in    
Wind  
Wind Speed 12 mph (SE)    
Max Wind Speed 30 mph    
Max Gust Speed 43 mph    
Visibility 10 miles    
Events Thunderstorm    
Averages and records for this station are not official NWS values.
T = Trace of Precipitation, MM = Missing Value Source: NWS Daily Summary

Daily Weather History Graph

Daily Weather History Graph

Search for Another Location

Airport or City:

Trip Planner

Search our weather history database for the weather conditions in past years. The results will help you decide how hot, cold, wet, or windy it might be!

Date:

Astronomy

Jul. 13, 2013 Rise Set
Actual Time 5:18 AM MDT 8:47 PM MDT
Civil Twilight 4:40 AM MDT 9:24 PM MDT
Nautical Twilight 3:50 AM MDT 10:13 PM MDT
Astronomical Twilight 2:45 AM MDT 11:18 PM MDT
Moon 10:58 AM MDT (7/13) 11:05 PM MDT (7/13)
Length of Visible Light 16h 43m
Length of Day
15h 28m
Waxing Crescent, 26% of the Moon is Illuminated
Jul 13
Waxing Crescent
Jul 15
First Quarter
Jul 22
Full
Jul 29
Last Quarter
Aug 6
New

Hourly Weather History & Observations

Time (MDT) Temp. Heat Index Dew Point Humidity Pressure Visibility Wind Dir Wind Speed Gust Speed Precip Events Conditions
12:51 AM 55.9 °F - 48.9 °F 77% 29.92 in 10.0 mi SE 3.5 mph - N/A   Clear
1:51 AM 55.9 °F - 51.1 °F 84% 29.91 in 10.0 mi SSE 6.9 mph - N/A   Clear
2:51 AM 57.0 °F - 52.0 °F 83% 29.90 in 10.0 mi East 4.6 mph - N/A   Clear
3:51 AM 57.0 °F - 52.0 °F 83% 29.90 in 10.0 mi SE 6.9 mph - N/A   Clear
4:51 AM 57.9 °F - 51.1 °F 78% 29.91 in 10.0 mi ESE 8.1 mph - N/A   Clear
5:51 AM 57.0 °F - 51.1 °F 81% 29.92 in 10.0 mi SE 6.9 mph - N/A   Clear
6:51 AM 64.0 °F - 54.0 °F 70% 29.91 in 10.0 mi ESE 9.2 mph - N/A   Clear
7:51 AM 70.0 °F - 55.9 °F 61% 29.92 in 10.0 mi SE 16.1 mph - N/A   Clear
8:51 AM 75.9 °F - 57.0 °F 52% 29.91 in 10.0 mi SE 16.1 mph 26.5 mph N/A   Clear
9:51 AM 81.0 °F 81.1 °F 57.9 °F 45% 29.89 in 10.0 mi SSE 25.3 mph 32.2 mph N/A   Clear
10:51 AM 84.0 °F 83.8 °F 59.0 °F 43% 29.90 in 10.0 mi SSE 20.7 mph 31.1 mph N/A   Clear
11:51 AM 86.0 °F 85.4 °F 59.0 °F 40% 29.89 in 10.0 mi SSE 19.6 mph 28.8 mph N/A   Clear
12:51 PM 89.1 °F 88.2 °F 59.0 °F 36% 29.88 in 10.0 mi South 16.1 mph 23.0 mph N/A   Clear
1:51 PM 90.0 °F 89.7 °F 60.1 °F 37% 29.87 in 10.0 mi South 15.0 mph 23.0 mph N/A   Clear
2:51 PM 91.0 °F 89.7 °F 57.0 °F 32% 29.87 in 10.0 mi South 11.5 mph - N/A   Clear
3:51 PM 87.1 °F 86.5 °F 59.0 °F 39% 29.86 in 10.0 mi SW 5.8 mph - N/A Thunderstorm Mostly Cloudy
4:44 PM 77.0 °F - 55.4 °F 47% 29.95 in 10.0 mi South 23.0 mph 36.8 mph 0.00 in Thunderstorm Scattered Clouds
4:51 PM 78.1 °F - 55.0 °F 45% 29.89 in 10.0 mi South 21.9 mph 34.5 mph 0.00 in Thunderstorm Partly Cloudy
5:25 PM 84.2 °F 83.5 °F 57.2 °F 40% 29.93 in 10.0 mi SSE 16.1 mph - N/A   Partly Cloudy
5:51 PM 81.0 °F 81.3 °F 59.0 °F 47% 29.87 in 10.0 mi SE 11.5 mph - N/A   Clear
6:51 PM 82.9 °F 82.8 °F 59.0 °F 44% 29.91 in 10.0 mi NNW 17.3 mph 27.6 mph N/A   Clear
7:51 PM 71.1 °F - 57.9 °F 63% 30.00 in 10.0 mi North 29.9 mph 42.6 mph N/A   Clear
8:51 PM 66.9 °F - 54.0 °F 63% 30.06 in 10.0 mi North 19.6 mph 27.6 mph N/A   Overcast
9:51 PM 66.0 °F - 52.0 °F 60% 30.07 in 10.0 mi North 18.4 mph - N/A   Mostly Cloudy
10:25 PM 66.2 °F - 48.2 °F 52% 30.16 in 10.0 mi North 11.5 mph - N/A Thunderstorm Scattered Clouds
10:40 PM 66.2 °F - 46.4 °F 49% 30.17 in 10.0 mi North 15.0 mph - N/A   Scattered Clouds
10:51 PM 66.9 °F - 46.9 °F 49% 30.10 in 10.0 mi North 15.0 mph - N/A   Partly Cloudy
11:51 PM 60.1 °F - 52.0 °F 75% 30.11 in 10.0 mi NNW 10.4 mph - N/A   Clear